Location: Kalberh�ni
(46.4610°N, 7.2453°E)
Time: 02:37:49
(UTC+00:00)

Cosmos 990 Rocket - Pass Details

Date: 20 June 2021
Orbit: 747 x 768 km, 74.0° (Epoch: 25 July)

Event Time Altitude Azimuth Distance (km) Brightness Sun altitude
Rises 23:32:43 0° 340° (NNW) 3,226 8.5 -20.1°
Reaches altitude 10° 23:35:08 10° 344° (NNW) 2,293 7.6 -20.1°
Maximum altitude 23:40:16 60° 65° (ENE) 864 4.3 -20.1°
Enters shadow 23:42:50 29° 134° (SE) 1,363 4.9 -20.1°
